Temp_Advection
nan nan nan nan nan nan nan nan nan nan nan nan nan nan nan nan nan nan nan nan nan nan nan nan nan nan nan nan nan nan nan nan nan nan nan nan nan nan nan nan nan nan nan nan nan nan nan nan nan
nan 0 0 0 0 -0 -0 -1 -0 -2 -0 0 -1 -1 -1 -0 0 0 -0 -0 0 0 0 -0 -0 0 -0 -0 0 -0 -0 -0 -0 0 0 0 0 0 0 -0 0 0 -0 -0 -0 -0 -0 -0 nan
nan 0 0 0 -0 -0 -0 -0 -1 -1 -0 0 -0 -1 -0 -0 0 -0 -0 0 0 0 0 0 -0 0 0 -0 -0 -0 -0 -0 0 0 0 0 0 0 0 -0 -0 -0 -0 -0 -0 -0 -0 -0 nan
nan -0 0 0 -0 -0 -0 -0 -0 0 0 0 -2 -1 0 -0 0 0 0 0 0 0 0 0 0 0 0 0 -0 -0 -0 0 0 0 0 0 0 0 -0 -0 -0 -0 -0 -0 -0 -0 -0 -0 nan
nan 0 0 -0 -0 -0 -0 -2 -0 -0 0 0 -1 -0 0 1 0 1 0 0 0 0 0 0 0 0 0 0 -0 0 0 0 0 -0 0 0 0 0 -0 0 -0 -0 -0 -0 -0 -0 -0 -0 nan
nan 0 0 -0 -1 -1 -1 -2 -0 -0 -0 0 -1 -0 0 0 0 0 0 0 1 0 0 0 0 0 0 0 0 0 0 0 0 -0 -0 -0 0 0 0 -0 -0 -0 -0 -0 -0 -0 -0 -0 nan
nan -0 -0 -0 -0 -0 -1 -2 0 -0 0 0 -2 -0 0 0 0 -0 -0 0 1 0 -0 0 0 0 0 0 0 0 0 0 0 0 -0 -0 -0 0 0 -0 -0 -0 -0 -0 -0 -0 -0 -0 nan
nan 0 0 -0 -0 -1 -1 -1 -1 0 -1 -0 -0 -1 -0 0 0 0 0 -0 0 0 0 -0 0 -0 0 0 0 0 0 0 0 0 -0 -0 -0 -0 0 -0 -0 -0 -0 -0 -0 -0 -0 -0 nan
nan 0 -0 -0 -0 -0 -1 -1 -2 -2 -0 1 1 -0 -1 -0 0 0 -0 0 0 1 0 0 0 0 0 0 0 0 0 0 0 0 0 -0 -0 -0 -0 -0 0 -0 -0 0 -0 -0 -0 -0 nan
nan 0 -0 -0 -0 -0 -1 -0 -1 -1 1 0 0 0 1 -0 0 1 0 0 0 0 1 0 0 0 0 0 -0 0 -0 -0 0 0 0 0 -0 -0 -0 0 0 -0 -0 -0 -0 -0 -0 -0 nan
nan -0 -1 -1 -0 -0 -0 -0 -0 -0 -0 -0 -0 0 3 0 0 0 0 -0 0 -0 0 0 0 0 0 0 0 -0 -0 -0 0 0 -0 -0 0 -0 -0 -0 -0 -0 -0 -0 -0 -0 -0 -0 nan
nan -0 -0 -0 -1 -1 -1 -1 -0 -0 -0 -0 -0 1 0 0 0 0 0 -0 0 0 0 -0 0 0 0 0 0 0 -0 -0 -0 0 -0 -0 0 -0 -0 -0 -0 0 -0 -0 -0 -0 -0 -0 nan
nan -0 -1 -0 -0 -1 -1 -1 -0 -1 -0 -0 0 1 -2 1 1 -0 0 0 0 0 0 0 0 0 0 0 0 0 0 -0 -0 0 -0 -0 -0 -0 -0 -0 -0 -0 -0 -0 -0 -0 -0 -0 nan
nan 0 -0 -0 -0 -0 -0 -1 -1 -0 -0 -0 0 -1 -1 1 1 -0 0 0 0 0 -0 -0 0 0 0 0 0 0 0 -0 -0 0 0 -0 -0 -0 -0 -0 -0 -0 -0 -0 -0 -0 -0 -0 nan
nan -0 -0 -0 -0 -0 -0 -0 -0 -1 -0 -0 -0 0 0 1 1 1 0 0 0 -0 -0 0 -0 0 0 0 -0 -0 0 0 0 0 0 -0 -0 0 -0 -0 -0 -0 0 -0 -0 -0 -0 -0 nan
nan -0 -0 -0 -0 -0 0 -0 -1 -1 -0 -1 -0 0 0 1 1 1 1 1 0 -0 -0 -0 -0 0 0 0 0 0 0 0 0 0 0 0 0 0 -0 -0 -0 -0 0 -0 -0 -0 -0 -0 nan
nan 0 -0 -0 -0 0 0 -0 -0 -1 0 -1 -1 0 0 1 0 -0 1 1 1 0 0 -0 -0 0 0 0 0 0 0 0 0 0 0 0 0 0 -0 -0 -0 -0 -0 -0 -0 -0 -0 -0 nan
nan -0 -0 -0 -0 0 0 -1 -1 -1 -0 -1 -1 -0 1 0 0 1 0 1 1 1 0 0 0 0 0 0 0 0 0 0 0 0 0 0 0 0 0 0 0 -0 -0 -0 -0 -0 -0 -0 nan
nan 0 -0 -0 -0 0 -0 -1 -1 -1 -0 -0 -1 -1 0 0 1 1 -0 0 0 1 0 1 1 0 0 0 0 0 0 0 0 0 0 0 0 0 0 0 0 -0 -0 -0 -0 -0 -0 -0 nan
nan 0 0 -0 -0 0 0 -0 -1 -0 -0 -0 -0 -0 -0 0 -0 -0 -0 0 0 0 0 1 1 0 0 0 0 0 0 0 0 0 0 0 0 0 0 0 0 -0 -0 -0 -0 -0 -0 -0 nan
nan 0 0 -0 -0 -0 0 -0 -1 -1 -0 -1 -0 -0 -0 0 0 0 1 1 0 1 0 1 -0 0 0 1 0 -0 -0 0 0 0 0 0 0 0 0 0 0 0 -0 -0 -0 -0 -0 -0 nan
nan 0 0 0 -0 -0 -0 0 -1 -0 -0 -0 -0 -1 -0 1 1 1 0 -0 1 3 1 0 0 1 0 0 0 0 0 0 0 0 0 0 0 0 0 0 0 0 -0 -0 -0 -0 -0 -0 nan
nan 0 0 0 0 -0 0 -0 -1 -0 -0 0 -0 -2 0 1 1 1 0 1 1 0 2 1 1 0 0 0 0 0 0 -0 1 0 0 0 0 0 0 0 0 0 -0 -0 -0 -0 -0 -0 nan
nan 0 -0 0 0 -0 -0 -0 -0 -0 -1 -0 -0 -0 0 1 1 1 1 1 -0 -1 0 1 1 0 0 0 0 0 0 1 1 -0 0 0 0 0 0 0 0 -0 -0 -0 -0 -0 -0 -0 nan
nan -0 -0 -0 -0 -0 0 0 -1 -1 -0 0 -0 -0 0 0 0 1 0 0 -0 0 -1 -1 -0 0 0 0 0 0 1 0 -0 -0 0 0 0 0 0 0 0 0 -0 -0 -0 -0 -0 -0 nan
nan -0 -0 -0 -0 -0 -0 0 -0 -0 0 0 -0 0 0 1 1 0 0 0 1 1 0 -0 -0 0 -0 0 0 1 1 -0 0 1 0 0 0 0 0 0 0 0 -0 -0 -0 -0 -0 -0 nan
nan -0 -0 0 0 0 -0 -0 -0 -0 -0 -0 -1 1 2 1 1 0 1 1 1 1 1 1 1 0 0 1 0 1 0 0 1 0 0 0 0 0 0 0 0 0 -0 -0 -0 -0 -0 -0 nan
nan 0 -0 0 -0 0 -0 -0 0 -0 -1 -0 -0 0 1 1 0 1 1 1 0 0 0 1 1 1 1 1 1 0 0 0 0 0 0 0 0 0 0 0 0 0 -0 -0 -0 -0 -0 -0 nan
nan -0 -0 -0 -0 0 0 -0 -0 -0 -0 0 -0 0 0 1 1 1 0 0 1 1 1 1 1 1 1 0 1 0 0 0 0 0 0 0 0 0 0 0 0 -0 -0 -0 -0 -0 -0 -0 nan
nan nan nan nan nan nan nan nan nan nan nan nan nan nan nan nan nan nan nan nan nan nan nan nan nan nan nan nan nan nan nan nan nan nan nan nan nan nan nan nan nan nan nan nan nan nan nan nan nan
Wind_Speed
6 8 8 2 1 2 4 6 3 9 5 4 6 9 11 8 2 4 20 25 25 28 26 25 22 18 16 14 11 10 8 7 5 3 3 4 5 6 6 7 7 7 7 7 8 8 8 8 8
6 8 4 4 4 5 5 6 7 17 4 8 13 13 8 3 10 23 29 20 21 29 28 26 20 19 16 13 12 9 8 6 5 4 4 5 6 6 7 7 8 8 8 9 9 9 9 9 9
8 2 2 4 4 10 4 5 13 13 8 4 7 15 6 4 22 27 23 24 23 28 27 24 21 18 16 13 11 8 8 7 6 6 6 6 6 7 8 8 9 9 9 10 10 10 10 10 10
5 1 5 3 6 5 6 7 3 4 3 2 17 8 7 10 25 20 27 24 25 28 26 24 21 18 16 13 10 9 8 7 7 7 7 7 8 8 9 9 10 10 11 11 11 11 11 11 11
3 4 2 4 5 7 6 21 5 3 3 2 9 5 8 27 13 26 29 25 28 28 26 24 20 17 15 12 10 9 8 7 7 8 8 9 9 10 10 10 11 11 12 12 12 13 13 12 12
4 3 1 5 6 6 12 24 12 8 10 8 9 15 11 16 23 34 28 24 26 28 27 24 20 17 14 11 10 9 8 8 8 8 9 10 11 11 11 11 11 12 13 13 13 13 13 13 13
2 1 4 5 5 7 10 27 7 17 14 10 20 8 13 25 32 33 29 25 25 26 28 25 21 18 14 12 11 10 9 9 9 9 10 11 11 11 11 11 12 13 13 13 14 14 13 13 13
4 2 3 3 5 8 12 12 18 14 15 15 22 7 10 34 34 34 32 28 26 27 28 26 22 17 14 13 12 11 10 10 10 10 10 11 11 11 11 11 11 12 12 13 14 14 14 14 13
5 3 2 4 5 6 20 11 18 20 19 16 17 9 19 41 37 34 35 31 27 31 29 26 23 17 14 13 12 11 11 11 11 10 10 10 10 10 10 10 10 10 11 12 13 15 15 15 13
2 1 4 6 9 11 18 11 17 12 8 4 4 5 28 45 41 37 38 36 30 31 30 27 23 18 16 14 13 12 12 12 11 10 10 9 9 8 9 9 9 10 11 11 13 13 15 14 14
3 3 7 15 15 19 16 13 18 13 4 5 15 11 40 47 40 37 36 35 32 30 28 26 23 19 17 15 14 12 12 12 11 10 8 7 6 7 8 8 9 9 10 11 11 12 14 13 14
4 7 15 16 23 22 13 19 15 4 10 9 8 26 8 45 43 35 38 35 32 32 28 25 23 21 18 16 14 12 11 10 10 9 7 6 5 6 6 7 8 9 9 10 11 11 12 12 12
8 5 16 17 19 20 21 16 10 21 12 11 4 27 35 33 44 34 37 34 34 34 32 26 22 20 18 16 13 11 11 11 10 8 6 5 4 4 5 6 7 8 9 9 10 10 10 10 9
5 7 13 12 16 16 11 17 13 14 21 21 10 25 29 38 50 43 39 37 38 35 32 27 24 21 20 17 13 12 11 10 10 8 6 5 4 3 4 5 6 6 7 8 8 10 10 10 9
10 5 6 8 11 7 10 15 5 22 19 23 15 15 28 42 47 47 45 40 38 35 31 28 25 23 21 18 15 13 11 10 9 8 6 5 3 2 2 4 4 5 6 7 8 9 9 9 9
2 2 4 5 7 6 7 18 14 17 12 20 24 16 17 27 39 46 47 40 37 36 32 26 26 24 21 18 15 13 12 10 9 7 5 4 2 1 1 3 3 3 5 7 8 9 10 9 10
1 4 4 7 7 5 6 11 6 16 14 18 28 17 21 24 19 30 44 44 41 35 32 28 26 24 22 19 17 15 13 10 8 6 5 4 2 0 1 2 2 3 4 6 8 9 10 10 10
2 5 5 5 3 7 14 18 14 27 19 18 28 25 23 19 30 29 40 43 43 36 34 30 28 25 24 21 18 15 12 10 8 6 5 4 3 1 1 1 1 2 3 6 8 9 10 11 11
6 5 6 6 8 1 9 15 15 19 20 16 15 13 22 17 21 43 39 39 46 41 36 32 32 29 26 23 19 16 14 11 8 6 4 4 2 2 2 1 1 1 3 6 8 9 9 9 10
7 7 7 7 8 4 9 11 16 12 15 17 20 21 13 22 29 40 37 43 39 43 39 36 35 32 28 24 21 17 15 11 8 7 6 3 3 3 2 3 2 0 3 5 7 8 9 10 10
3 5 3 7 8 6 5 8 8 12 18 23 27 26 20 22 30 34 35 39 42 42 39 38 37 34 29 26 22 19 15 10 9 7 6 4 5 4 4 4 3 1 2 4 6 7 8 8 9
3 5 3 9 6 3 2 5 7 9 10 10 22 25 16 22 26 27 32 22 36 44 39 39 37 31 27 21 16 14 12 11 9 8 9 6 5 6 6 5 4 1 1 4 5 7 8 8 7
6 2 5 6 6 4 4 1 7 6 9 11 11 22 16 19 24 29 31 30 16 36 42 39 34 28 21 18 12 11 11 12 11 11 13 10 10 8 6 5 4 2 2 3 5 6 7 7 7
3 5 4 2 1 2 6 5 6 4 10 8 6 21 18 19 20 22 23 27 43 35 31 34 36 22 19 16 17 15 18 19 13 13 12 10 10 10 9 6 3 2 3 4 5 6 7 7 8
1 4 3 1 2 5 6 2 10 8 2 8 8 20 22 19 21 26 28 32 30 30 31 28 23 19 19 21 23 23 19 12 14 14 14 13 12 10 7 5 2 4 5 6 6 7 7 8 9
5 4 4 3 2 5 4 5 6 5 3 3 1 26 25 25 26 26 26 25 29 26 27 23 14 20 18 20 20 20 19 19 18 17 14 12 10 8 5 3 3 4 6 6 7 8 9 10 11
2 4 4 2 2 2 3 7 8 4 5 5 10 19 22 24 30 28 28 27 26 25 25 24 27 24 20 21 20 19 20 19 17 17 13 12 10 8 5 4 4 5 7 8 9 11 12 13 15
4 2 3 2 2 4 5 5 5 6 7 5 6 5 14 23 27 28 25 19 18 18 17 17 20 21 23 21 20 22 22 20 19 17 15 13 10 6 5 4 5 7 9 11 12 13 14 14 14
3 3 5 2 4 4 3 6 5 7 7 5 5 8 22 25 24 22 20 19 19 19 20 23 20 22 22 21 22 23 21 19 17 16 14 11 9 7 5 6 7 9 10 11 11 12 13 15 15
4 6 6 4 5 2 2 6 1 0 3 5 9 18 21 22 22 17 15 17 19 21 22 23 24 23 20 21 21 20 20 18 16 14 12 10 7 5 5 7 8 8 8 10 13 15 16 17 19
Wind_Direction
274 185 176 227 97 147 214 243 253 279 329 170 80 113 116 66 120 171 157 164 166 163 162 160 159 156 154 153 146 141 141 137 141 138 114 91 80 73 60 55 52 46 40 37 34 30 24 19 16
194 155 159 234 158 209 233 231 245 246 253 129 101 104 59 75 106 142 152 173 175 164 162 162 157 155 155 152 148 146 146 147 142 124 105 95 84 73 67 62 57 55 51 46 40 35 31 30 28
175 231 225 166 202 212 204 222 228 251 204 205 111 86 86 126 136 148 172 167 167 164 163 158 157 157 155 151 149 149 147 142 137 126 113 99 85 77 70 67 64 60 55 49 44 39 38 38 39
348 284 262 209 226 234 227 256 328 207 192 291 125 72 97 130 148 179 165 165 173 165 161 158 158 159 155 151 150 148 144 140 131 121 109 98 89 83 79 73 67 61 56 51 47 45 46 46 48
317 265 246 268 242 282 256 256 246 256 210 211 107 124 105 150 159 162 160 167 171 159 160 158 158 160 153 150 150 146 142 136 127 119 111 103 95 89 80 74 69 63 58 54 53 51 51 52 55
317 256 301 252 284 262 271 259 247 222 223 192 101 120 154 157 168 157 163 176 170 158 159 156 161 159 155 152 149 144 140 131 124 118 112 105 99 90 82 75 69 65 62 58 55 55 53 54 59
253 41 249 297 272 275 250 260 234 229 203 220 154 129 161 159 163 161 170 170 164 165 161 161 162 162 158 155 149 143 137 130 122 117 111 106 97 88 81 75 71 68 65 62 59 55 52 52 58
286 245 254 280 290 287 266 318 282 248 220 210 181 155 172 169 165 168 168 170 170 172 168 164 164 164 161 156 149 143 136 129 124 120 116 108 95 87 81 76 73 70 67 63 61 56 56 52 51
260 239 277 251 265 267 313 345 318 305 221 197 196 193 191 163 166 168 168 171 176 172 170 166 165 165 163 157 149 142 135 130 126 122 118 107 96 82 75 73 70 74 72 68 64 59 53 47 48
200 224 241 251 272 304 309 330 323 335 206 160 124 239 159 161 170 169 175 170 178 171 171 168 168 165 163 159 151 143 138 134 128 124 116 107 91 89 80 73 70 70 71 70 62 56 51 46 47
236 214 265 285 295 315 309 320 332 337 349 347 170 118 159 162 174 171 179 175 180 173 169 173 167 166 165 161 153 148 143 140 134 123 113 104 100 87 80 76 71 67 70 66 61 53 50 46 48
239 256 268 283 295 301 302 309 322 342 333 304 190 203 234 167 180 181 184 178 181 173 174 173 170 163 162 159 152 147 145 137 135 132 130 115 95 82 74 72 69 70 67 60 53 48 49 47 47
239 262 283 294 310 306 316 301 295 301 333 3 267 174 198 190 181 186 184 180 182 179 174 176 175 165 161 159 147 152 153 149 151 149 136 117 98 83 80 73 68 69 67 57 49 45 44 49 46
298 289 288 270 300 305 309 303 307 274 305 319 280 212 197 203 185 185 185 183 183 180 176 176 176 165 161 163 156 161 157 156 157 156 146 137 117 86 78 79 69 72 69 54 45 43 36 37 37
299 313 295 254 259 263 324 300 221 277 293 297 302 231 207 204 191 189 185 185 183 180 181 180 174 167 169 169 169 167 163 161 161 163 155 141 122 98 87 88 75 71 62 48 43 39 35 35 33
259 346 305 282 238 270 135 266 273 282 314 288 282 251 216 225 192 191 185 185 186 185 180 180 176 174 174 175 171 167 167 167 164 165 162 150 133 116 70 91 75 67 55 45 37 35 32 32 29
300 288 243 302 219 257 180 269 303 298 280 297 279 259 233 220 215 183 191 187 188 188 181 184 182 177 177 177 172 174 172 166 169 169 171 163 163 174 90 83 88 61 40 43 34 27 28 30 32
278 303 285 255 283 211 252 265 271 275 294 299 270 258 233 219 220 232 190 189 192 193 187 187 181 179 178 179 175 173 174 172 176 180 185 191 193 234 210 139 108 69 39 32 32 28 26 27 33
256 257 289 289 267 318 245 250 259 264 273 281 270 268 232 214 204 198 200 191 193 196 186 185 180 181 182 179 174 175 176 179 183 192 200 210 216 237 241 187 132 56 39 24 26 28 28 29 28
280 285 294 297 323 223 285 263 260 255 261 274 280 272 243 210 205 217 192 193 191 187 188 183 180 180 179 177 174 174 175 179 184 191 204 214 231 229 210 195 172 54 26 21 24 27 27 19 21
266 260 302 302 300 284 262 283 276 274 240 250 265 283 255 222 204 207 200 197 198 188 185 185 180 180 178 178 174 169 172 170 180 194 204 212 229 223 196 198 196 189 32 10 16 15 19 19 12
279 189 282 301 334 256 76 286 289 262 234 224 242 259 250 213 206 200 189 200 185 188 187 186 180 179 176 166 168 170 178 184 186 220 227 221 238 216 193 198 207 222 20 3 357 3 3 0 1
243 200 237 266 285 318 287 91 263 261 245 232 230 241 220 212 211 208 202 201 220 180 184 184 178 169 165 172 181 198 228 247 235 214 211 206 188 193 197 203 224 253 337 340 345 347 348 342 344
319 293 283 176 173 321 262 167 268 256 238 245 228 221 209 206 213 205 197 198 201 212 194 180 178 170 174 177 189 208 224 225 195 202 210 200 196 195 196 199 216 274 313 320 332 333 334 333 331
148 18 356 20 346 235 236 321 242 254 331 224 201 200 194 190 196 191 178 179 179 172 198 188 181 180 174 181 193 200 195 191 213 219 210 202 189 182 189 199 236 288 300 311 323 323 321 319 317
209 169 154 261 240 271 323 266 260 300 175 144 293 212 195 186 170 177 178 173 168 173 178 176 194 209 200 195 195 201 189 199 201 204 193 184 188 187 194 213 251 282 298 310 317 315 313 313 310
326 191 191 222 247 45 252 283 304 308 300 42 22 192 187 182 179 178 184 180 176 178 180 183 184 195 199 192 183 189 198 197 191 191 186 187 188 189 198 224 260 281 291 306 309 310 308 308 309
186 302 36 355 292 297 283 272 244 306 283 342 51 123 163 167 174 178 183 187 186 184 184 188 187 188 183 179 176 189 195 194 187 180 180 178 181 185 203 237 273 291 304 308 310 311 311 313 315
137 257 221 209 163 212 289 272 215 255 265 229 149 138 141 154 166 169 177 185 185 182 184 182 175 172 168 175 180 180 181 177 175 171 174 175 181 196 224 260 288 300 310 314 320 323 322 322 321
173 220 179 141 270 252 172 272 248 276 9 194 173 153 151 156 154 159 168 171 171 170 170 169 167 169 171 174 174 173 170 171 171 167 170 178 192 217 262 286 296 309 322 328 325 324 323 318 318
Height
1513 1514 1515 1517 1527 1523 1521 1510 1496 1495 1491 1485 1484 1483 1490 1497 1499 1514 1506 1512 1517 1519 1524 1528 1531 1533 1536 1538 1540 1541 1541 1542 1543 1543 1543 1542 1542 1542 1541 1541 1540 1539 1538 1538 1537 1536 1535 1534 1533
1512 1513 1514 1515 1524 1522 1517 1500 1498 1487 1489 1485 1484 1488 1491 1501 1500 1503 1508 1513 1517 1520 1523 1527 1530 1533 1536 1538 1539 1540 1541 1542 1542 1543 1543 1543 1542 1542 1542 1541 1540 1540 1539 1538 1537 1536 1535 1534 1533
1512 1513 1513 1514 1516 1510 1511 1493 1491 1486 1487 1484 1485 1488 1495 1499 1501 1504 1507 1512 1516 1520 1524 1527 1530 1533 1535 1538 1539 1540 1541 1541 1542 1542 1542 1543 1543 1543 1542 1542 1541 1540 1540 1539 1538 1537 1535 1534 1533
1512 1513 1513 1512 1509 1501 1496 1490 1489 1487 1484 1484 1482 1492 1497 1498 1501 1501 1508 1512 1515 1520 1524 1527 1530 1533 1535 1537 1539 1540 1541 1541 1542 1542 1543 1543 1543 1543 1543 1542 1541 1541 1540 1539 1538 1537 1536 1534 1533
1512 1512 1515 1512 1506 1499 1494 1488 1490 1488 1485 1485 1480 1494 1497 1500 1499 1503 1507 1510 1514 1519 1524 1527 1530 1532 1534 1536 1539 1540 1541 1541 1542 1542 1543 1543 1544 1544 1543 1543 1542 1541 1541 1540 1539 1537 1536 1535 1534
1512 1511 1517 1517 1510 1498 1489 1487 1491 1488 1484 1481 1483 1490 1499 1501 1500 1503 1506 1507 1514 1517 1523 1526 1529 1532 1534 1536 1538 1539 1541 1541 1542 1543 1543 1543 1544 1544 1544 1544 1543 1542 1541 1540 1539 1538 1537 1535 1534
1512 1514 1515 1510 1506 1500 1490 1482 1487 1486 1481 1480 1479 1490 1497 1501 1503 1503 1504 1510 1513 1517 1520 1525 1528 1532 1534 1536 1538 1539 1540 1541 1542 1543 1544 1544 1545 1545 1545 1544 1544 1543 1542 1541 1540 1539 1538 1536 1535
1513 1511 1509 1509 1508 1501 1485 1487 1487 1485 1480 1479 1478 1485 1493 1497 1503 1502 1505 1509 1512 1515 1518 1522 1527 1531 1534 1536 1538 1539 1540 1542 1542 1543 1545 1545 1546 1546 1545 1545 1544 1543 1543 1542 1541 1540 1538 1537 1536
1510 1513 1513 1508 1502 1495 1488 1488 1483 1480 1477 1478 1479 1479 1480 1492 1502 1502 1504 1508 1511 1513 1516 1519 1525 1529 1533 1535 1538 1539 1541 1542 1543 1544 1545 1546 1546 1547 1546 1546 1545 1544 1543 1543 1542 1540 1539 1538 1537
1509 1513 1508 1502 1497 1496 1490 1490 1486 1481 1473 1474 1479 1480 1482 1491 1498 1500 1500 1504 1509 1512 1514 1517 1522 1527 1532 1535 1537 1539 1540 1542 1543 1544 1545 1546 1546 1547 1547 1547 1546 1545 1545 1543 1542 1541 1540 1539 1538
1507 1509 1504 1498 1497 1494 1489 1485 1487 1485 1479 1477 1476 1486 1484 1488 1498 1501 1503 1506 1509 1514 1515 1516 1520 1525 1530 1534 1536 1538 1540 1542 1543 1544 1545 1546 1547 1547 1547 1547 1547 1546 1545 1544 1543 1542 1541 1540 1539
1507 1503 1502 1498 1495 1492 1489 1484 1484 1484 1485 1478 1474 1476 1486 1485 1494 1499 1502 1507 1511 1513 1516 1517 1519 1522 1528 1532 1535 1537 1539 1542 1543 1544 1545 1547 1547 1547 1547 1547 1547 1546 1546 1545 1544 1543 1541 1540 1539
1502 1501 1500 1496 1493 1490 1487 1483 1484 1481 1483 1476 1473 1475 1477 1489 1489 1499 1501 1506 1510 1513 1513 1517 1520 1521 1525 1530 1533 1536 1539 1542 1543 1544 1545 1546 1548 1548 1547 1547 1547 1547 1546 1545 1545 1543 1542 1541 1540
1502 1501 1498 1494 1491 1490 1486 1479 1484 1479 1481 1476 1477 1475 1477 1482 1486 1491 1497 1501 1507 1512 1513 1516 1520 1522 1524 1527 1531 1534 1538 1541 1542 1544 1545 1546 1547 1547 1547 1547 1548 1547 1546 1546 1545 1544 1543 1542 1540
1502 1501 1496 1492 1489 1488 1486 1478 1477 1476 1479 1476 1477 1476 1478 1481 1481 1484 1491 1497 1501 1507 1513 1515 1518 1521 1524 1526 1530 1533 1536 1540 1542 1543 1545 1546 1546 1547 1547 1547 1548 1548 1547 1546 1546 1545 1544 1543 1541
1502 1502 1502 1488 1486 1485 1487 1482 1469 1474 1478 1476 1472 1472 1472 1474 1469 1487 1488 1495 1499 1503 1509 1513 1516 1520 1523 1526 1528 1532 1535 1538 1540 1542 1544 1545 1546 1546 1547 1547 1547 1548 1548 1546 1546 1545 1544 1542 1541
1501 1503 1502 1494 1484 1484 1485 1478 1471 1471 1475 1477 1469 1470 1471 1472 1459 1470 1488 1491 1496 1498 1505 1509 1514 1518 1522 1525 1527 1530 1534 1536 1539 1541 1543 1544 1545 1546 1546 1547 1547 1548 1548 1547 1545 1544 1543 1542 1541
1512 1508 1498 1495 1485 1483 1482 1475 1471 1470 1472 1475 1470 1465 1467 1469 1474 1475 1467 1487 1493 1496 1501 1505 1509 1515 1519 1522 1525 1529 1532 1535 1537 1540 1541 1542 1543 1545 1546 1546 1547 1547 1548 1547 1545 1543 1542 1541 1540
1502 1500 1500 1490 1482 1482 1478 1473 1468 1469 1469 1467 1468 1464 1465 1465 1468 1471 1478 1482 1488 1491 1495 1499 1504 1511 1515 1518 1523 1527 1530 1533 1535 1538 1540 1541 1542 1543 1544 1545 1547 1547 1546 1547 1545 1543 1541 1540 1539
1498 1497 1497 1489 1481 1481 1476 1472 1464 1462 1463 1464 1465 1465 1466 1470 1471 1470 1469 1481 1484 1484 1485 1491 1497 1504 1511 1514 1518 1525 1529 1532 1534 1536 1538 1540 1541 1541 1542 1544 1545 1547 1546 1546 1544 1543 1541 1539 1538
1493 1493 1494 1494 1483 1476 1475 1472 1464 1454 1457 1459 1461 1461 1461 1464 1467 1470 1474 1477 1480 1482 1487 1493 1493 1498 1506 1511 1515 1520 1526 1529 1534 1535 1537 1537 1540 1541 1540 1543 1544 1545 1544 1545 1543 1542 1540 1540 1538
1494 1487 1489 1490 1490 1497 1474 1489 1466 1453 1452 1452 1454 1456 1457 1459 1463 1468 1472 1477 1465 1480 1486 1494 1490 1499 1504 1508 1514 1518 1524 1527 1529 1535 1535 1533 1537 1540 1541 1542 1543 1543 1543 1543 1543 1541 1539 1539 1539
1491 1486 1488 1488 1492 1490 1481 1497 1463 1452 1448 1446 1446 1449 1452 1454 1459 1464 1469 1471 1477 1469 1479 1487 1491 1497 1500 1504 1507 1513 1522 1525 1524 1527 1531 1532 1532 1535 1538 1540 1543 1543 1542 1541 1541 1540 1538 1538 1537
1485 1487 1485 1483 1489 1503 1478 1486 1467 1455 1442 1438 1438 1442 1445 1449 1454 1459 1464 1470 1473 1477 1478 1482 1487 1490 1495 1497 1503 1509 1513 1521 1525 1527 1532 1532 1530 1534 1538 1539 1541 1542 1541 1541 1539 1538 1537 1537 1535
1487 1495 1508 1495 1504 1490 1470 1483 1459 1441 1433 1431 1433 1437 1440 1444 1450 1454 1459 1464 1470 1472 1480 1477 1476 1486 1490 1494 1501 1506 1512 1519 1524 1526 1528 1528 1531 1534 1536 1537 1538 1541 1541 1540 1537 1536 1535 1534 1533
1489 1491 1510 1504 1502 1491 1469 1475 1456 1437 1432 1431 1431 1434 1435 1441 1447 1451 1455 1462 1469 1476 1478 1478 1484 1487 1486 1495 1501 1506 1512 1514 1516 1523 1523 1525 1531 1532 1534 1536 1537 1538 1539 1536 1535 1535 1533 1531 1530
1483 1490 1482 1489 1487 1506 1475 1456 1441 1435 1434 1431 1432 1434 1437 1440 1446 1452 1457 1462 1468 1474 1475 1472 1476 1485 1488 1495 1497 1507 1514 1515 1515 1520 1522 1526 1529 1531 1533 1535 1535 1536 1536 1533 1533 1531 1530 1529 1527
1481 1483 1492 1500 1492 1482 1481 1461 1462 1447 1436 1435 1437 1436 1439 1444 1447 1452 1458 1461 1464 1468 1471 1476 1479 1481 1487 1494 1495 1506 1514 1515 1515 1516 1522 1524 1527 1528 1530 1531 1533 1534 1532 1531 1529 1528 1527 1525 1523
1485 1485 1483 1482 1486 1486 1482 1471 1447 1444 1438 1437 1440 1439 1440 1444 1448 1454 1458 1462 1466 1470 1473 1476 1478 1483 1488 1494 1499 1505 1511 1513 1515 1516 1521 1522 1523 1526 1528 1529 1530 1530 1528 1528 1526 1525 1523 1522 1520
1470 1473 1473 1487 1476 1478 1478 1470 1441 1439 1438 1437 1439 1440 1441 1442 1447 1453 1459 1463 1465 1468 1473 1476 1480 1484 1488 1494 1501 1505 1507 1513 1516 1516 1518 1521 1523 1524 1525 1527 1527 1526 1525 1524 1524 1522 1519 1518 1516